HFM9015 LOWW-LHBP

Flight info

Callsign HFM9015
Flight time 0h 31m
Altitude 19000
Route ADAMA Z647 ANEXA
Aircraft A388/J-SADE2E3FGHIJ3J4J5M1RWXY/LB1D1

Departure

Time 2026-05-08 08:37
Airport Vienna International Airport (LOWW)

Arrival

Time 2026-05-08 09:09
Airport Budapest Liszt Ferenc International Airport (LHBP)
Time Latitude Longitude Altitude Speed Heading
2026-05-08 08:25 48.11944 16.55559 614 ft 0 kts 64°
2026-05-08 08:25 48.11941 16.55551 614 ft 2 kts 64°
2026-05-08 08:26 48.11934 16.55529 630 ft 2 kts 64°
2026-05-08 08:26 48.11927 16.55506 630 ft 2 kts 65°
2026-05-08 08:26 48.11920 16.55484 630 ft 2 kts 65°
2026-05-08 08:26 48.11913 16.55461 631 ft 2 kts 67°
2026-05-08 08:27 48.11907 16.55438 630 ft 2 kts 69°
2026-05-08 08:27 48.11904 16.55417 631 ft 2 kts 82°
2026-05-08 08:27 48.11906 16.55393 629 ft 2 kts 100°
2026-05-08 08:27 48.11912 16.55370 630 ft 0 kts 113°
2026-05-08 08:31 48.11911 16.55372 630 ft 3 kts 113°
2026-05-08 08:31 48.11882 16.55488 629 ft 16 kts 108°
2026-05-08 08:31 48.11834 16.55653 627 ft 19 kts 115°
2026-05-08 08:32 48.11780 16.55819 619 ft 14 kts 117°
2026-05-08 08:32 48.11732 16.55956 625 ft 15 kts 117°
2026-05-08 08:32 48.11679 16.56111 622 ft 10 kts 117°
2026-05-08 08:32 48.11634 16.56194 626 ft 10 kts 177°
2026-05-08 08:33 48.11556 16.56211 629 ft 13 kts 133°
2026-05-08 08:33 48.11510 16.56355 625 ft 18 kts 117°
2026-05-08 08:33 48.11446 16.56548 624 ft 23 kts 116°
2026-05-08 08:33 48.11369 16.56779 626 ft 26 kts 116°
2026-05-08 08:34 48.11296 16.57001 627 ft 25 kts 116°
2026-05-08 08:34 48.11232 16.57204 626 ft 22 kts 115°
2026-05-08 08:34 48.11166 16.57415 630 ft 19 kts 115°
2026-05-08 08:34 48.11157 16.57443 626 ft 0 kts 115°
2026-05-08 08:35 48.11152 16.57458 624 ft 9 kts 115°
2026-05-08 08:35 48.11093 16.57523 618 ft 13 kts 186°
2026-05-08 08:35 48.10995 16.57460 628 ft 14 kts 208°
2026-05-08 08:36 48.10969 16.57376 626 ft 9 kts 288°
2026-05-08 08:36 48.10990 16.57300 627 ft 0 kts 294°
2026-05-08 08:36 48.10993 16.57287 626 ft 0 kts 295°
2026-05-08 08:36 48.10994 16.57284 625 ft 2 kts 295°
2026-05-08 08:37 48.11017 16.57216 622 ft 30 kts 296°
2026-05-08 08:37 48.11249 16.56506 624 ft 116 kts 296°
2026-05-08 08:37 48.11679 16.55179 735 ft 154 kts 297°
2026-05-08 08:37 48.12120 16.53749 1493 ft 151 kts 293°
2026-05-08 08:38 48.12225 16.52157 2178 ft 160 kts 264°
2026-05-08 08:38 48.11815 16.50559 2708 ft 177 kts 236°
2026-05-08 08:38 48.10777 16.49421 3040 ft 197 kts 208°
2026-05-08 08:38 48.09477 16.48481 3327 ft 220 kts 208°
2026-05-08 08:39 48.08055 16.47557 4163 ft 224 kts 197°
2026-05-08 08:39 48.06500 16.47393 5304 ft 225 kts 174°
2026-05-08 08:39 48.04913 16.47740 6189 ft 239 kts 174°
2026-05-08 08:39 48.03191 16.48076 6834 ft 260 kts 175°
2026-05-08 08:40 48.01323 16.48420 7498 ft 278 kts 175°
2026-05-08 08:40 47.99386 16.48772 8471 ft 283 kts 175°
2026-05-08 08:40 47.97443 16.49360 9449 ft 291 kts 160°
2026-05-08 08:40 47.95785 16.51034 10379 ft 300 kts 135°
2026-05-08 08:41 47.94593 16.53781 10870 ft 324 kts 111°
2026-05-08 08:41 47.94164 16.57181 11168 ft 347 kts 91°
2026-05-08 08:41 47.94268 16.60797 11774 ft 357 kts 84°
2026-05-08 08:41 47.94539 16.64546 12572 ft 361 kts 83°
2026-05-08 08:42 47.94826 16.68290 13354 ft 366 kts 84°
2026-05-08 08:42 47.95090 16.72049 14081 ft 372 kts 84°
2026-05-08 08:42 47.95342 16.75903 14823 ft 375 kts 84°
2026-05-08 08:42 47.95585 16.79800 15538 ft 379 kts 85°
2026-05-08 08:43 47.95827 16.83742 16224 ft 384 kts 85°
2026-05-08 08:43 47.96069 16.87726 16923 ft 388 kts 85°
2026-05-08 08:43 47.96312 16.91768 17600 ft 392 kts 85°
2026-05-08 08:43 47.96544 16.95653 18224 ft 396 kts 85°
2026-05-08 08:44 47.96794 16.99857 18824 ft 401 kts 85°
2026-05-08 08:44 47.97041 17.04029 19052 ft 405 kts 85°
2026-05-08 08:44 47.97293 17.08298 19076 ft 422 kts 85°
2026-05-08 08:44 47.97551 17.12708 19072 ft 428 kts 85°
2026-05-08 08:45 47.97809 17.17132 19074 ft 427 kts 85°
2026-05-08 08:45 47.98064 17.21550 19072 ft 427 kts 85°
2026-05-08 08:45 47.98317 17.25969 19075 ft 427 kts 85°
2026-05-08 08:45 47.98527 17.30383 19071 ft 427 kts 89°
2026-05-08 08:46 47.98341 17.34805 19071 ft 427 kts 99°
2026-05-08 08:46 47.97687 17.39114 19070 ft 426 kts 108°
2026-05-08 08:46 47.96726 17.43293 19070 ft 426 kts 110°
2026-05-08 08:46 47.95781 17.47479 19067 ft 426 kts 109°
2026-05-08 08:47 47.94848 17.51677 19069 ft 426 kts 109°
2026-05-08 08:47 47.93916 17.55876 19068 ft 427 kts 109°
2026-05-08 08:47 47.92978 17.60074 19066 ft 427 kts 109°
2026-05-08 08:47 47.92034 17.64271 19066 ft 427 kts 109°
2026-05-08 08:48 47.91089 17.68461 19068 ft 427 kts 109°
2026-05-08 08:48 47.90142 17.72650 19069 ft 427 kts 110°
2026-05-08 08:48 47.89192 17.76845 19066 ft 427 kts 109°
2026-05-08 08:48 47.88242 17.81030 19066 ft 427 kts 110°
2026-05-08 08:49 47.87289 17.85221 19066 ft 427 kts 110°
2026-05-08 08:49 47.86334 17.89410 19065 ft 427 kts 110°
2026-05-08 08:49 47.85379 17.93592 19066 ft 427 kts 110°
2026-05-08 08:49 47.84427 17.97755 18993 ft 419 kts 110°
2026-05-08 08:50 47.83504 18.01786 18767 ft 405 kts 110°
2026-05-08 08:50 47.82604 18.05704 18520 ft 398 kts 110°
2026-05-08 08:50 47.81709 18.09593 18279 ft 397 kts 110°
2026-05-08 08:50 47.80814 18.13475 18007 ft 396 kts 110°
2026-05-08 08:51 47.79922 18.17334 17734 ft 394 kts 110°
2026-05-08 08:51 47.79045 18.21127 17472 ft 392 kts 110°
2026-05-08 08:51 47.78147 18.25002 17199 ft 390 kts 110°
2026-05-08 08:51 47.77276 18.28761 16946 ft 389 kts 110°
2026-05-08 08:52 47.76394 18.32555 16683 ft 388 kts 110°
2026-05-08 08:52 47.75515 18.36326 16424 ft 386 kts 110°
2026-05-08 08:52 47.74866 18.39107 16236 ft 385 kts 110°
2026-05-08 08:52 47.73980 18.42897 15977 ft 383 kts 110°
2026-05-08 08:53 47.73118 18.46582 15734 ft 382 kts 110°
2026-05-08 08:53 47.72236 18.50349 15477 ft 380 kts 110°
2026-05-08 08:53 47.71373 18.54001 15224 ft 379 kts 110°
2026-05-08 08:53 47.70504 18.57691 14988 ft 377 kts 110°
2026-05-08 08:54 47.69624 18.61351 14754 ft 376 kts 112°
2026-05-08 08:54 47.68442 18.64792 14507 ft 374 kts 123°
2026-05-08 08:54 47.66882 18.67852 14256 ft 370 kts 134°
2026-05-08 08:54 47.65134 18.70650 13882 ft 371 kts 134°
2026-05-08 08:55 47.63397 18.73486 13279 ft 371 kts 133°
2026-05-08 08:55 47.61682 18.76310 12721 ft 366 kts 133°
2026-05-08 08:55 47.59998 18.79087 12172 ft 360 kts 133°
2026-05-08 08:55 47.58329 18.81836 11618 ft 356 kts 133°
2026-05-08 08:56 47.56682 18.84539 11077 ft 352 kts 133°
2026-05-08 08:56 47.55050 18.87214 10529 ft 348 kts 132°
2026-05-08 08:56 47.53444 18.89844 10117 ft 337 kts 132°
2026-05-08 08:56 47.51917 18.92339 9933 ft 317 kts 132°
2026-05-08 08:57 47.50476 18.94690 9711 ft 301 kts 132°
2026-05-08 08:57 47.49086 18.96953 9571 ft 296 kts 132°
2026-05-08 08:57 47.47702 18.99199 9429 ft 296 kts 132°
2026-05-08 08:57 47.46317 19.01457 9107 ft 295 kts 132°
2026-05-08 08:58 47.44941 19.03700 8799 ft 294 kts 132°
2026-05-08 08:58 47.43565 19.05940 8333 ft 295 kts 132°
2026-05-08 08:58 47.42186 19.08180 7908 ft 294 kts 132°
2026-05-08 08:58 47.40828 19.10384 7724 ft 288 kts 132°
2026-05-08 08:59 47.39481 19.12565 7413 ft 285 kts 132°
2026-05-08 08:59 47.38151 19.14722 6971 ft 286 kts 131°
2026-05-08 08:59 47.36803 19.16903 6564 ft 286 kts 131°
2026-05-08 08:59 47.35481 19.19045 6379 ft 281 kts 131°
2026-05-08 09:00 47.34174 19.21161 6050 ft 277 kts 131°
2026-05-08 09:00 47.32876 19.23244 5706 ft 274 kts 132°
2026-05-08 09:00 47.31596 19.25285 5395 ft 269 kts 131°
2026-05-08 09:00 47.30342 19.27313 5057 ft 267 kts 131°
2026-05-08 09:01 47.29098 19.29328 4710 ft 265 kts 132°
2026-05-08 09:01 47.27864 19.31322 4394 ft 262 kts 132°
2026-05-08 09:01 47.26654 19.33263 4091 ft 261 kts 132°
2026-05-08 09:01 47.25410 19.35262 3993 ft 258 kts 132°
2026-05-08 09:02 47.24236 19.37166 3992 ft 244 kts 129°
2026-05-08 09:02 47.23521 19.39301 3932 ft 233 kts 98°
2026-05-08 09:02 47.23662 19.41598 3861 ft 223 kts 66°
2026-05-08 09:02 47.24545 19.43381 3816 ft 213 kts 40°
2026-05-08 09:03 47.25641 19.44780 3738 ft 205 kts 41°
2026-05-08 09:03 47.26676 19.46167 3648 ft 198 kts 41°
2026-05-08 09:03 47.27684 19.47537 3500 ft 196 kts 41°
2026-05-08 09:03 47.28853 19.48498 3287 ft 194 kts
2026-05-08 09:04 47.30161 19.48201 3081 ft 192 kts 333°
2026-05-08 09:04 47.31241 19.47093 3005 ft 183 kts 317°
2026-05-08 09:04 47.31830 19.46246 2975 ft 176 kts 313°
2026-05-08 09:04 47.32638 19.44959 2984 ft 171 kts 311°
2026-05-08 09:05 47.33444 19.43663 2991 ft 172 kts 312°
2026-05-08 09:05 47.34250 19.42364 2859 ft 167 kts 312°
2026-05-08 09:05 47.35012 19.41127 2612 ft 158 kts 311°
2026-05-08 09:05 47.35730 19.39998 2406 ft 143 kts 311°
2026-05-08 09:06 47.36372 19.38938 2228 ft 135 kts 311°
2026-05-08 09:06 47.37012 19.37918 2040 ft 136 kts 311°
2026-05-08 09:06 47.37648 19.36892 1857 ft 135 kts 311°
2026-05-08 09:06 47.38286 19.35871 1699 ft 135 kts 311°
2026-05-08 09:07 47.38919 19.34843 1484 ft 136 kts 311°
2026-05-08 09:07 47.39549 19.33816 1309 ft 134 kts 311°
2026-05-08 09:07 47.40188 19.32807 1107 ft 135 kts 312°
2026-05-08 09:07 47.40818 19.31784 933 ft 134 kts 311°
2026-05-08 09:08 47.41445 19.30760 729 ft 134 kts 312°
2026-05-08 09:08 47.42075 19.29741 552 ft 134 kts 313°
2026-05-08 09:08 47.42698 19.28733 453 ft 127 kts 313°
2026-05-08 09:08 47.43183 19.27954 467 ft 77 kts 312°
2026-05-08 09:09 47.43430 19.27555 467 ft 40 kts 313°
2026-05-08 09:09 47.43599 19.27282 471 ft 33 kts 312°
2026-05-08 09:09 47.43743 19.27051 470 ft 30 kts 312°
2026-05-08 09:09 47.43889 19.26816 469 ft 33 kts 312°
2026-05-08 09:10 47.44047 19.26562 470 ft 33 kts 312°
2026-05-08 09:10 47.44199 19.26318 469 ft 30 kts 313°
2026-05-08 09:10 47.44333 19.26101 470 ft 27 kts 312°
2026-05-08 09:10 47.44452 19.25910 472 ft 20 kts 312°
2026-05-08 09:11 47.44508 19.25762 482 ft 17 kts 276°
2026-05-08 09:11 47.44448 19.25587 463 ft 17 kts 212°
2026-05-08 09:11 47.44347 19.25567 464 ft 17 kts 161°
2026-05-08 09:11 47.44247 19.25680 463 ft 18 kts 133°
2026-05-08 09:12 47.44154 19.25831 463 ft 20 kts 132°
2026-05-08 09:12 47.44066 19.25973 463 ft 17 kts 132°
2026-05-08 09:12 47.43986 19.26026 463 ft 13 kts 206°
2026-05-08 09:12 47.43903 19.25924 462 ft 18 kts 221°
2026-05-08 09:13 47.43811 19.25802 462 ft 16 kts 222°
2026-05-08 09:13 47.43724 19.25686 462 ft 19 kts 222°
2026-05-08 09:13 47.43619 19.25545 462 ft 22 kts 222°
2026-05-08 09:13 47.43509 19.25398 462 ft 20 kts 222°
2026-05-08 09:14 47.43408 19.25261 462 ft 17 kts 223°
2026-05-08 09:14 47.43325 19.25149 462 ft 16 kts 223°
2026-05-08 09:14 47.43314 19.25006 462 ft 16 kts 304°
2026-05-08 09:14 47.43395 19.24866 462 ft 19 kts 312°
2026-05-08 09:15 47.43492 19.24708 462 ft 22 kts 312°
2026-05-08 09:15 47.43599 19.24535 462 ft 24 kts 313°
2026-05-08 09:15 47.43713 19.24353 462 ft 25 kts 313°
2026-05-08 09:15 47.43801 19.24212 462 ft 17 kts 313°
2026-05-08 09:16 47.43885 19.24077 462 ft 18 kts 310°
2026-05-08 09:16 47.43908 19.23938 462 ft 13 kts 252°
2026-05-08 09:16 47.43841 19.23818 459 ft 18 kts 221°
2026-05-08 09:16 47.43778 19.23666 462 ft 18 kts 256°
2026-05-08 09:17 47.43754 19.23470 462 ft 21 kts 261°
2026-05-08 09:17 47.43737 19.23299 462 ft 14 kts 261°
2026-05-08 09:17 47.43730 19.23235 462 ft 0 kts 261°
2026-05-08 09:18 47.43727 19.23204 462 ft 7 kts 262°
2026-05-08 09:19 47.43717 19.23097 462 ft 13 kts 262°
2026-05-08 09:19 47.43719 19.23005 460 ft 9 kts 303°
2026-05-08 09:19 47.43771 19.22941 462 ft 8 kts 324°
2026-05-08 09:19 47.43780 19.22931 462 ft 0 kts 325°